Regional Weather Roundup
Issued by NWS

Home | Current Version | Previous Version | Graphics & Text | Print | Product List | Glossary Off
Versions: 1 2 3 4 5 6 7 8 9 10 11 12 13 14 15 16 17 18 19 20 21 22 23 24 25 26 27 28 29 30 31 32 33 34 35 36 37 38 39 40 41 42 43 44 45 46 47 48 49 50

000
ASUS43 KDTX 061101
RWRMI
MICHIGAN HOURLY REGIONAL WEATHER ROUNDUP
NATIONAL WEATHER SERVICE DETROIT/PONTIAC MI
700 AM EDT FRI MAY 06 2016

NOTE: "FAIR" INDICATES FEW OR NO CLOUDS BELOW 12,000 FEET WITH NO
SIGNIFICANT WEATHER AND/OR OBSTRUCTION TO VISIBILITY.

MIZ047>049-052>055-059>063-066>070-074>076-081>083-061200-
SOUTHEAST LOWER MICHIGAN

CITY           SKY/WX    TMP DP  RH WIND       PRES   REMARKS
ADRIAN         CLEAR     46  41  82 N5        29.94R
ALMA           CLEAR     37  37 100 CALM      29.95R FOG
BAD AXE        CLEAR     35  35  98 CALM      29.94R FOG
CARO           FOG       36  36  97 CALM      29.93R VSB 1/4
DETROIT CITY   CLEAR     47  35  63 N3        29.93R
DETROIT        PTCLDY    48  36  63 N3        29.94R
FLINT          CLEAR     41  38  89 CALM      29.95R
GROSSE ILE     CLEAR     46  37  71 N6        29.91R
HILLSDALE      CLEAR     43  39  85 CALM      29.94R
HOWELL         CLEAR     40  38  91 SW3       29.93S

CITY           SKY/WX    TMP DP  RH WIND       PRES   REMARKS
JACKSON        CLEAR     42  40  92 SW3       29.94R
LAMBERTVILLE   CLEAR     41  38  90 CALM      29.94R
LANSING        CLEAR     44  40  85 CALM      29.95R
LAPEER         FAIR      37  36  98 MISG      29.94R
MASON          CLEAR     40  39  96 CALM      29.95R
MONROE         CLEAR     41  38  89 W10       29.92R
PONTIAC        PTCLDY    43  38  82 CALM      29.92R
PORT HOPE        N/A     41  38  89 W3        29.92R
PORT HURON     CLEAR     41  39  93 NW3       29.93R
TRI CITIES     CLEAR     44  39  82 W3        29.95R
MIDLAND        FAIR      37  37 100 CALM      29.94R
TROY           CLEAR     48  37  65 CALM      29.94S
SAGINAW HB     CLEAR     41  37  87 CALM      29.94R
$$
MIZ043>046-050>051-056>058-064>065-071>073-077>080-061200-
SOUTHWEST LOWER MICHIGAN

CITY           SKY/WX    TMP DP  RH WIND       PRES   REMARKS
BATTLE CREEK   CLEAR     41  35  79 NW3       29.96R
BENTON HARBOR  CLEAR     36  34  92 CALM      29.98R
BIG RAPIDS     PTCLDY    35  32  90 CALM      29.95R
COLDWATER      CLEAR     40  38  91 CALM      29.95S
FREMONT        FAIR      36  36 100 CALM      29.95F
HOLLAND        CLEAR    N/A N/A N/A W5        29.98R
GRAND RAPIDS   PTCLDY    42  36  79 W3        29.97R
IONIA          FAIR      41  37  86 W6        29.95R
KALAMAZOO      PTCLDY    40  35  83 NW5       29.97R
LUDINGTON      PTCLDY    39  37  92 CALM      29.95R
MARSHALL       CLEAR     40  37  89 CALM      29.94S
MOUNT PLEASANT PTCLDY    41  41  98 CALM      29.94R
MUSKEGON       MOCLDY    37  33  85 CALM      29.97R
SOUTH HAVEN    CLEAR     35  35  99 CALM      29.98R
$$
MIZ016>042-061200-
NORTHERN LOWER MICHIGAN

CITY           SKY/WX    TMP DP  RH WIND       PRES   REMARKS
ALPENA         CLEAR     38  35  89 CALM      29.93R
BEAVER ISLAND  CLEAR     34  33  96 S3        29.90S
BELLAIRE       CLEAR     34  33  96 CALM      29.94R
CADILLAC       CLEAR     33  32  98 CALM      29.93S
CHARLEVOIX     CLEAR     39  37  91 SE3       29.95R
FRANKFORT      CLEAR     37  35  92 CALM      29.93R
GAYLORD        CLEAR     40  33  76 CALM      29.92S
GRAYLING       CLEAR     33  32  96 CALM      29.94R
HARBOR SPRINGS CLEAR     38  34  86 CALM      29.92S
HOUGHTON LAKE  PTCLDY    35  34  96 CALM      29.94R
MANISTEE       PTCLDY    36  30  80 E5        29.95R WCI  32
OSCODA         CLEAR     34  30  85 CALM      29.93R
PELLSTON       CLEAR     33  31  92 CALM      29.92R
ROGERS CITY    CLEAR     39  35  86 S3        29.93S
TRAVERSE CITY  PTCLDY    37  34  89 CALM      29.92R
$$
MIZ007>008-015-061200-
EASTERN UPPER MICHIGAN

CITY           SKY/WX    TMP DP  RH WIND       PRES   REMARKS
KINROSS          N/A     43  37  81 SW5       29.90S
MACKINAC ISLAN CLEAR     40  34  77 W6        29.91R
NEWBERRY       CLEAR     42  37  84 S8        29.88S
S. S. MARIE    CLEAR     39  35  86 CALM      29.90S
MUNISING         N/A     47  38  71 S12       29.84R
$$
MIZ004>006-011>014-085-061200-
CENTRAL UPPER MICHIGAN

CITY           SKY/WX    TMP DP  RH WIND       PRES   REMARKS
MANISTIQUE     CLEAR     41  38  91 S7        29.88R
ESCANABA       CLEAR     43  39  87 CALM      29.87R
MENOMINEE      CLEAR     48  41  76 SE5       29.88S
SAWYER-GWINN   CLEAR     41  37  87 S6        29.84R
$$
MIZ001>003-009>011-084-061200-
WESTERN UPPER MICHIGAN

CITY           SKY/WX    TMP DP  RH WIND       PRES   REMARKS
IRON MOUNTAIN  CLEAR     42  38  85 CALM      29.83S
HOUGHTON       PTCLDY    44  36  73 CALM      29.76S
COPPER HARBOR    N/A     54  37  52 SW13G21   29.74F
IRONWOOD       CLEAR     57  39  51 SW7       29.77R
$$

ABBREVIATIONS USED IN REMARKS
   TC - TEMPERATURE IN CELSIUS
  WCI - WIND CHILL INDEX
   HX - HEAT INDEX
  VSB - VISIBILITY





USA.gov is the U.S. government's official web portal to all federal, state and local government web resources and services.